Weather History for Carmi, IL

Change the Weather History Date:

Wednesday, December 7, 2011

  Actual Average (KEVV) Record (KEVV)
Temperature  
Mean Temperature 34 °F 38 °F  
Max Temperature 40 °F 46 °F 72 °F (1916)
Min Temperature 29 °F 29 °F 2 °F (1984)
Degree Days  
Heating Degree Days 30 27  
Month to date heating degree days 184  
Since 1 July heating degree days 1045  
Cooling Degree Days 0 0  
Month to date cooling degree days 0  
Year to date cooling degree days 1397  
Moisture  
Dew Point 31 °F    
Average Humidity 86    
Maximum Humidity 95    
Minimum Humidity 74    
Precipitation  
Precipitation 0.00 in 0.14 in 2.07 in (1924)
Month to date precipitation 0.92  
Year to date precipitation 42.47  
Snow  
Snow 0.00 in 0.10 in 0.20 in (1950)
Month to date snowfall 0.4  
Since 1 July snowfall 0.7  
Snow Depth -    
Sea Level Pressure  
Sea Level Pressure 30.13 in    
Wind  
Wind Speed 9 mph (NW)    
Max Wind Speed 16 mph    
Max Gust Speed 22 mph    
Visibility 10 miles    
Events      
T = Trace of Precipitation, MM = Missing Value Source: NWS Daily Summary

Daily Weather History Graph

Daily Weather History Graph

Search for Another Location

Airport:

Trip Planner

Search our weather history database for the weather conditions in past years. The results will help you decide how hot, cold, wet, or windy it might be!

Date:

Astronomy

Dec. 07, 2011 Rise Set
Actual Time 6:55 AM CST 4:32 PM CST
Civil Twilight 6:25 AM CST 5:01 PM CST
Nautical Twilight 5:53 AM CST 5:34 PM CST
Astronomical Twilight 5:21 AM CST 6:06 PM CST
Moon 2:32 PM CST (12/7) 4:11 AM CST (12/7)
Length of Visible Light 10h 35m
Length of Day
9h 37m
Waxing Gibbous, 92% of the Moon is Illuminated
Dec 7
Waxing Gibbous
Dec 10
Full
Dec 17
Last Quarter
Dec 24
New
Jan 1
First Quarter

Hourly Weather History & Observations

Time (CST) Temp. Windchill Dew Point Humidity Pressure Visibility Wind Dir Wind Speed Gust Speed Precip Events Conditions
12:15 AM 35.8 °F 28.8 °F 32.4 °F 87% 30.11 in 10.0 mi North 9.2 mph - N/A   Overcast
12:35 AM 35.6 °F 28.0 °F 32.0 °F 87% 30.10 in 10.0 mi North 10.4 mph - N/A   Overcast
12:55 AM 35.2 °F 27.6 °F 32.0 °F 88% 30.09 in 10.0 mi North 10.4 mph - N/A   Overcast
1:15 AM 34.9 °F 27.7 °F 32.0 °F 89% 30.09 in 10.0 mi North 9.2 mph - N/A   Overcast
1:35 AM 34.9 °F 27.7 °F 31.3 °F 87% 30.08 in 10.0 mi North 9.2 mph - N/A   Overcast
1:55 AM 34.7 °F 28.1 °F 32.0 °F 90% 30.08 in 10.0 mi North 8.1 mph - N/A   Overcast
2:15 AM 34.7 °F 27.5 °F 31.6 °F 89% 30.07 in 10.0 mi North 9.2 mph - N/A   Mostly Cloudy
2:35 AM 34.2 °F 25.7 °F 31.6 °F 90% 30.06 in 10.0 mi North 11.5 mph - N/A   Scattered Clouds
2:55 AM 34.0 °F 26.0 °F 31.6 °F 91% 30.05 in 10.0 mi North 10.4 mph - N/A   Scattered Clouds
3:15 AM 34.0 °F 26.6 °F 30.7 °F 88% 30.04 in 10.0 mi North 9.2 mph - N/A   Clear
3:35 AM 33.3 °F 28.9 °F 30.2 °F 89% 30.06 in 10.0 mi North 4.6 mph - N/A   Scattered Clouds
3:55 AM 33.8 °F 30.8 °F 30.9 °F 89% 30.06 in 10.0 mi NNW 3.5 mph - N/A   Overcast
4:15 AM 33.8 °F 27.7 °F 30.7 °F 89% 30.07 in 10.0 mi North 6.9 mph - N/A   Overcast
4:35 AM 33.8 °F 28.6 °F 30.7 °F 89% 30.07 in 10.0 mi North 5.8 mph - N/A   Overcast
4:55 AM 34.0 °F 28.0 °F 30.7 °F 88% 30.08 in 10.0 mi NNW 6.9 mph - N/A   Overcast
5:15 AM 33.8 °F 28.6 °F 30.9 °F 89% 30.09 in 10.0 mi NNW 5.8 mph - N/A   Overcast
5:35 AM 34.0 °F 28.0 °F 30.9 °F 89% 30.09 in 10.0 mi NNW 6.9 mph - N/A   Overcast
6:15 AM 33.8 °F 25.8 °F 30.9 °F 89% 30.10 in 10.0 mi NNW 10.4 mph - N/A   Overcast
6:35 AM 34.0 °F 25.0 °F 30.7 °F 88% 30.10 in 10.0 mi NNW 12.7 mph - N/A   Overcast
7:15 AM 34.2 °F 26.2 °F 30.6 °F 87% 30.12 in 10.0 mi NNW 10.4 mph - N/A   Overcast
7:35 AM 34.2 °F 25.7 °F 30.7 °F 87% 30.12 in 10.0 mi NNW 11.5 mph - N/A   Overcast
7:55 AM 34.5 °F 27.9 °F 30.6 °F 85% 30.13 in 10.0 mi NNW 8.1 mph - N/A   Overcast
8:15 AM 34.7 °F 27.5 °F 30.7 °F 85% 30.13 in 10.0 mi NNW 9.2 mph - N/A   Overcast
8:35 AM 35.2 °F 28.1 °F 31.5 °F 86% 30.13 in 10.0 mi NNW 9.2 mph - N/A   Overcast
8:55 AM 35.6 °F 29.2 °F 31.1 °F 84% 30.13 in 10.0 mi NNW 8.1 mph - N/A   Overcast
9:15 AM 36.3 °F 30.1 °F 31.5 °F 83% 30.14 in 10.0 mi NNW 8.1 mph - N/A   Overcast
9:35 AM 36.5 °F 29.2 °F 31.1 °F 81% 30.14 in 10.0 mi NNW 10.4 mph - N/A   Overcast
9:55 AM 37.2 °F 28.7 °F 31.6 °F 80% 30.14 in 10.0 mi NNW 13.8 mph - N/A   Overcast
10:15 AM 37.4 °F 29.8 °F 31.1 °F 78% 30.14 in 10.0 mi NNW 11.5 mph - N/A   Overcast
10:35 AM 38.8 °F 31.6 °F 31.8 °F 76% 30.13 in 10.0 mi NNW 11.5 mph - N/A   Mostly Cloudy
10:55 AM 38.3 °F 31.4 °F 31.6 °F 77% 30.13 in 10.0 mi North 10.4 mph - N/A   Mostly Cloudy
11:15 AM 39.7 °F 34.3 °F 32.5 °F 75% 30.13 in 10.0 mi NW 8.1 mph - N/A   Mostly Cloudy
11:35 AM 37.4 °F 30.8 °F 31.8 °F 80% 30.12 in 10.0 mi NW 9.2 mph - N/A   Mostly Cloudy
11:55 AM 38.5 °F 31.1 °F 32.2 °F 78% 30.12 in 10.0 mi NW 11.5 mph - N/A   Overcast
12:15 PM 37.8 °F 31.3 °F 32.5 °F 81% 30.12 in 10.0 mi WNW 9.2 mph - N/A   Overcast
12:35 PM 38.8 °F 31.6 °F 32.9 °F 79% 30.12 in 10.0 mi West 11.5 mph - N/A   Overcast
12:55 PM 40.5 °F 32.8 °F 32.7 °F 74% 30.12 in 10.0 mi NW 13.8 mph - N/A   Overcast
1:15 PM 38.8 °F 30.8 °F 32.0 °F 76% 30.12 in 10.0 mi WNW 13.8 mph - N/A   Overcast
1:35 PM 39.0 °F 31.4 °F 32.4 °F 77% 30.12 in 10.0 mi West 12.7 mph 19.6 mph N/A   Overcast
1:55 PM 37.9 °F 28.9 °F 33.1 °F 83% 30.13 in 10.0 mi West 16.1 mph 21.9 mph N/A   Overcast
2:15 PM 37.2 °F 27.9 °F 32.0 °F 81% 30.13 in 10.0 mi WNW 16.1 mph - N/A   Scattered Clouds
2:35 PM 36.7 °F 28.0 °F 32.0 °F 83% 30.14 in 10.0 mi WNW 13.8 mph - N/A   Mostly Cloudy
2:55 PM 36.0 °F 26.7 °F 31.8 °F 85% 30.15 in 10.0 mi West 15.0 mph - N/A   Overcast
3:15 PM 35.1 °F 26.4 °F 31.3 °F 86% 30.15 in 10.0 mi West 12.7 mph 18.4 mph N/A   Overcast
3:35 PM 34.7 °F 25.1 °F 30.7 °F 85% 30.16 in 10.0 mi West 15.0 mph - N/A   Overcast
3:55 PM 33.8 °F 25.8 °F 29.8 °F 85% 30.17 in 10.0 mi West 10.4 mph - N/A   Mostly Cloudy
4:15 PM 33.3 °F 27.1 °F 30.0 °F 88% 30.16 in 10.0 mi West 6.9 mph - N/A   Scattered Clouds
4:35 PM 32.9 °F 25.9 °F 30.0 °F 89% 30.17 in 7.0 mi WSW 8.1 mph - N/A   Scattered Clouds
4:55 PM 32.4 °F 26.9 °F 29.7 °F 90% 30.18 in 10.0 mi WSW 5.8 mph - N/A   Clear
5:15 PM 32.0 °F 27.5 °F 29.3 °F 90% 30.18 in 10.0 mi SW 4.6 mph - N/A   Clear
5:35 PM 31.5 °F 26.8 °F 29.1 °F 91% 30.18 in 10.0 mi SW 4.6 mph - N/A   Clear
5:55 PM 30.9 °F 25.2 °F 28.8 °F 92% 30.18 in 10.0 mi SW 5.8 mph - N/A   Clear
6:15 PM 30.4 °F 25.6 °F 28.4 °F 92% 30.19 in 10.0 mi SW 4.6 mph - N/A   Clear
6:35 PM 30.2 °F 25.4 °F 28.4 °F 93% 30.19 in 10.0 mi SW 4.6 mph - N/A   Clear
7:15 PM 29.3 °F 23.2 °F 28.0 °F 95% 30.20 in 7.0 mi SSW 5.8 mph - N/A   Clear
7:35 PM 30.2 °F 25.4 °F 28.8 °F 94% 30.20 in 7.0 mi SSW 4.6 mph - N/A   Clear
7:55 PM 30.2 °F 24.3 °F 28.6 °F 94% 30.20 in 10.0 mi SSW 5.8 mph - N/A   Clear
8:15 PM 30.6 °F 23.1 °F 28.9 °F 94% 30.21 in 10.0 mi SSW 8.1 mph - N/A   Clear
8:35 PM 31.1 °F 25.4 °F 29.3 °F 93% 30.21 in 10.0 mi SW 5.8 mph - N/A   Clear
8:55 PM 30.4 °F 24.5 °F 28.9 °F 94% 30.23 in 10.0 mi SW 5.8 mph - N/A   Clear
9:15 PM 30.9 °F 24.3 °F 29.1 °F 93% 30.23 in 7.0 mi SW 6.9 mph - N/A   Clear
9:35 PM 30.6 °F 23.8 °F 28.8 °F 93% 30.23 in 7.0 mi SW 6.9 mph - N/A   Clear
9:55 PM 30.0 °F 25.2 °F 28.4 °F 94% 30.23 in 10.0 mi SW 4.6 mph - N/A   Clear
10:15 PM 30.0 °F 23.2 °F 28.4 °F 94% 30.23 in 10.0 mi SW 6.9 mph - N/A   Clear
10:35 PM 30.2 °F 23.4 °F 28.8 °F 94% 30.23 in 10.0 mi SW 6.9 mph - N/A   Clear
10:55 PM 30.4 °F 22.9 °F 28.6 °F 93% 30.24 in 10.0 mi SW 8.1 mph - N/A   Clear
11:15 PM 29.8 °F 23.9 °F 28.4 °F 94% 30.24 in 10.0 mi SW 5.8 mph - N/A   Clear
11:35 PM 29.8 °F 23.9 °F 28.4 °F 94% 30.25 in 10.0 mi SW 5.8 mph - N/A   Clear
11:55 PM 30.0 °F 24.1 °F 28.4 °F 94% 30.24 in 10.0 mi SW 5.8 mph - N/A   Clear